This is the latest recevied weather packets stored in our database for station/object K1FSY-9. If no packets are shown the sender has not sent any weather packets the latest 10 day(s).
| Time | Temp. | Humidity | Pressure | Rain* | Wind** | Luminosity | Snow |
|---|---|---|---|---|---|---|---|
| 1778112791 | 14.44° C | 98% | 1004 hPa | 5.59 mm | - | - | - |
| 1778110989 | 14.44° C | 98% | 1004.4 hPa | 5.59 mm | - | - | - |
| 1778109186 | 13.89° C | 97% | 1004 hPa | 5.59 mm | - | - | - |
| 1778107384 | 13.89° C | 97% | 1003.7 hPa | 5.59 mm | - | - | - |
| 1778105584 | 13.89° C | 97% | 1004 hPa | 5.59 mm | - | - | - |
| 1778103778 | 13.89° C | 96% | 1003.7 hPa | 5.33 mm | - | - | - |
| 1778098367 | 14.44° C | 95% | 1004 hPa | 4.06 mm | - | - | - |
| 1778096564 | 14.44° C | 94% | 1004.4 hPa | 2.79 mm | - | - | - |
| 1778094759 | 14.44° C | 93% | 1004.4 hPa | 2.29 mm | - | - | - |
| 1778092956 | 15° C | 93% | 1004.7 hPa | 2.03 mm | - | - | - |
| 1778091154 | 15.56° C | 89% | 1005 hPa | 1.52 mm | - | - | - |
| 1778087547 | 16.67° C | 82% | 1005.7 hPa | 0.25 mm | - | - | - |
| 1778083942 | 18.89° C | 75% | 1005.7 hPa | 0 mm | - | - | - |
| 1778082141 | 18.89° C | 73% | 1005.7 hPa | 0 mm | - | - | - |
| 1778076740 | 18.33° C | 76% | 1006.4 hPa | 0 mm | - | - | - |
| 1778073130 | 16.67° C | 82% | 1006.4 hPa | 0 mm | - | - | - |
| 1778071326 | 15.56° C | 85% | 1006.7 hPa | 0 mm | - | - | - |
| 1778069594 | 15° C | 87% | 1007.4 hPa | 0 mm | - | - | - |
| 1778069558 | 15° C | 87% | 1007.4 hPa | 0 mm | - | - | - |
| 1778067724 | 13.89° C | 89% | 1007.4 hPa | 0 mm | - | - | - |
| 1778065925 | 13.33° C | 91% | 1007.4 hPa | 0 mm | - | - | - |
| 1778064122 | 12.22° C | 91% | 1007.7 hPa | 0 mm | - | - | - |
| 1778062316 | 12.22° C | 90% | 1007.7 hPa | 0 mm | - | - | - |
| 1778060524 | 12.22° C | 89% | 1007.4 hPa | 0 mm | - | - | - |
| 1778058712 | 12.78° C | 89% | 1007.4 hPa | 0 mm | - | - | - |
* Rain latest 24 hours (hover to see other rain measurements)
** Current wind speed in m/s (hover to see current wind gust speed)